FW4685 Weather Reports


Display with metric or nautical units.
time (UTC)temp
F
wind
direction
speed
MPH
gust
MPH
rain 1hr
in
rain 24hr
in
rain mn
in
humidity
%
barometer
mb
20260505195050 58 18 3.0 10.0 0.00 0.00 0.00 69 1013.6
20260505194032 58 18 2.0 5.0 0.00 0.00 0.00 69 1013.5
20260505193019 59 20 3.0 12.0 0.00 0.00 0.00 67 1013.4
20260505192024 59 23 2.0 7.0 0.00 0.00 0.00 63 1013.3
20260505191024 59 25 1.0 5.0 0.00 0.00 0.00 63 1013.3
20260505190027 59 22 2.0 10.0 0.00 0.00 0.00 63 1013.0
20260505185029 59 27 1.0 7.0 0.00 0.00 0.00 63 1013.1
20260505184032 59 25 1.0 7.0 0.00 0.00 0.00 64 1013.1
20260505183031 59 26 2.0 10.0 0.00 0.00 0.00 65 1012.9
20260505182032 59 31 2.0 10.0 0.00 0.00 0.00 65 1013.0
20260505181020 59 7 1.0 7.0 0.00 0.00 0.00 66 1012.9
20260505180023 59 357 1.0 7.0 0.00 0.00 0.00 66 1013.1
20260505175024 59 6 1.0 5.0 0.00 0.00 0.00 65 1012.9
20260505174044 59 15 1.0 7.0 0.00 0.00 0.00 66 1012.8
20260505173024 60 336 0.0 5.0 0.00 0.00 0.00 65 1012.9
20260505172027 60 22 1.0 7.0 0.00 0.00 0.00 66 1013.1
20260505171048 60 16 0.0 5.0 0.00 0.00 0.00 65 1013.1
20260505170027 60 36 0.0 5.0 0.00 0.00 0.00 65 1013.1
20260505165027 60 13 1.0 5.0 0.00 0.00 0.00 63 1013.0
20260505164027 61 26 1.0 7.0 0.00 0.00 0.00 64 1013.1
20260505163027 61 13 1.0 5.0 0.00 0.00 0.00 63 1013.1
20260505162026 61 16 1.0 5.0 0.00 0.00 0.00 62 1013.2
20260505161048 62 17 1.0 7.0 0.00 0.00 0.00 61 1013.1
20260505153032 62 346 1.0 7.0 0.00 0.00 0.00 59 1013.2
20260505152019 61 6 0.0 5.0 0.00 0.00 0.00 61 1013.2
20260505151039 61 41 0.0 5.0 0.00 0.00 0.00 60 1013.4
20260505125028 61 16 3.0 7.0 0.00 0.00 0.00 61 1013.9
20260505124028 61 23 1.0 7.0 0.00 0.00 0.00 60 1013.9
20260505123038 62 26 1.0 7.0 0.00 0.00 0.00 60 1013.9
20260505122022 61 14 1.0 10.0 0.00 0.00 0.00 59 1013.9
20260505121024 61 30 2.0 7.0 0.00 0.00 0.00 59 1014.1
20260505120027 61 54 0.0 2.0 0.00 0.00 0.00 63 1014.0
20260505115049 61 17 1.0 5.0 0.00 0.00 0.00 62 1014.0
20260505114032 60 24 1.0 5.0 0.00 0.00 0.00 63 1014.1
20260505113019 60 21 1.0 7.0 0.00 0.00 0.00 64 1014.2
20260505112040 60 17 1.0 10.0 0.00 0.00 0.00 64 1014.2
20260505111019 59 337 1.0 10.0 0.00 0.00 0.00 65 1014.3
20260505102026 56 24 1.0 7.0 0.00 0.00 0.00 74 1014.7
20260505101028 55 23 1.0 5.0 0.00 0.00 0.00 75 1014.8
20260505100027 55 29 1.0 7.0 0.00 0.00 0.00 76 1014.9
20260505095051 54 9 2.0 12.0 0.00 0.00 0.00 79 1014.9
20260505094019 54 25 2.0 12.0 0.00 0.00 0.00 80 1014.9
20260505093023 54 26 1.0 7.0 0.00 0.00 0.00 80 1015.0
20260505092043 54 26 3.0 7.0 0.00 0.00 0.00 80 1015.0
20260505091024 54 14 2.0 7.0 0.00 0.00 0.00 80 1015.0
20260505090024 54 28 1.0 10.0 0.00 0.00 0.00 80 1015.0
20260505085029 54 35 1.0 7.0 0.00 0.00 0.00 80 1015.1
20260505084052 54 14 1.0 7.0 0.00 0.00 0.00 80 1015.0
20260505083018 54 20 2.0 10.0 0.00 0.00 0.00 80 1015.2
20260505082038 54 28 1.0 7.0 0.00 0.00 0.00 82 1015.1
20260505081020 54 353 0.0 5.0 0.00 0.00 0.00 84 1015.0
20260505080019 53 3 1.0 7.0 0.00 0.00 0.00 84 1015.1
20260505075021 53 356 0.0 2.0 0.00 0.00 0.00 84 1015.0
20260505074023 53 8 2.0 7.0 0.00 0.00 0.00 84 1015.1
20260505073027 53 30 1.0 5.0 0.00 0.00 0.00 84 1015.0
20260505072027 53 15 1.0 7.0 0.00 0.00 0.00 85 1015.1
20260505071031 53 20 0.0 5.0 0.00 0.00 0.00 85 1015.0
20260505070052 53 23 0.0 5.0 0.00 0.00 0.00 85 1015.1
20260505065048 53 32 1.0 5.0 0.00 0.00 0.00 85 1015.2
20260505064032 53 30 2.0 7.0 0.00 0.00 0.00 85 1015.3
20260505063032 53 25 1.0 5.0 0.00 0.00 0.00 85 1015.2
20260505062018 53 25 1.0 5.0 0.00 0.00 0.00 86 1015.2
20260505061018 53 25 1.0 5.0 0.00 0.00 0.00 86 1015.1
20260505060020 53 43 0.0 0.0 0.00 0.00 0.00 88 1014.9
20260505055024 52 34 1.0 5.0 0.00 0.00 0.00 88 1015.1
20260505054024 52 26 1.0 5.0 0.00 0.00 0.00 89 1015.0
20260505053024 52 20 1.0 7.0 0.00 0.00 0.00 89 1015.2
20260505052023 52 20 0.0 2.0 0.00 0.00 0.00 89 1015.1
20260505051023 52 20 0.0 5.0 0.00 0.00 0.00 89 1015.2
20260505041019 53 29 0.0 2.0 0.00 0.00 0.00 90 1015.2
20260505040022 53 15 0.0 0.0 0.00 0.00 0.00 89 1015.2
20260505035026 53 17 0.0 0.0 0.00 0.00 0.00 89 1015.3
20260505034027 53 57 0.0 0.0 0.00 0.00 0.00 89 1015.3
20260505033033 53 19 0.0 2.0 0.00 0.00 0.00 89 1015.4
20260505032032 53 74 0.0 2.0 0.00 0.00 0.00 88 1015.3
20260505031018 53 41 0.0 2.0 0.00 0.00 0.00 88 1015.4
20260505030022 54 20 1.0 5.0 0.00 0.00 0.00 88 1015.4
20260505025046 54 32 0.0 2.0 0.00 0.00 0.00 88 1015.4
20260505024027 54 35 0.0 5.0 0.00 0.00 0.00 88 1015.2
20260505023026 54 9 0.0 2.0 0.00 0.00 0.00 88 1015.3
20260505022026 54 34 1.0 7.0 0.00 0.00 0.00 88 1015.4
20260505021050 54 63 0.0 2.0 0.00 0.00 0.00 87 1015.4
20260505020019 54 76 0.0 2.0 0.00 0.00 0.00 86 1015.4
20260505015020 54 26 0.0 2.0 0.00 0.00 0.00 85 1015.4
20260505014023 54 23 0.0 5.0 0.00 0.00 0.00 85 1015.7
20260505013025 54 26 1.0 5.0 0.00 0.00 0.00 85 1015.7
20260505012049 54 28 1.0 5.0 0.00 0.00 0.00 85 1015.7
20260505011053 54 23 0.0 2.0 0.00 0.00 0.00 85 1015.9
20260505010020 54 33 0.0 2.0 0.00 0.00 0.00 85 1015.9
20260505005023 54 17 1.0 5.0 0.00 0.00 0.00 84 1016.0
20260505004023 54 26 0.0 2.0 0.00 0.00 0.00 84 1016.0
20260505003024 54 30 1.0 5.0 0.00 0.00 0.00 84 1016.0
20260505002022 55 26 1.0 5.0 0.00 0.00 0.00 83 1016.1
20260505001023 55 23 0.0 5.0 0.00 0.00 0.00 83 1016.2
20260505000027 55 20 1.0 7.0 0.00 0.00 0.00 83 1016.2
20260504235028 55 20 2.0 7.0 0.00 0.00 0.00 83 1016.2
20260504234031 55 34 2.0 10.0 0.00 0.00 0.00 82 1016.3
20260504233017 55 30 2.0 7.0 0.00 0.00 0.00 82 1016.3
20260504232020 55 20 1.0 5.0 0.00 0.00 0.00 82 1016.3
20260504231023 56 7 0.0 5.0 0.00 0.00 0.00 82 1016.4
20260504230023 56 27 1.0 5.0 0.00 0.00 0.00 82 1016.4
20260504225028 56 21 1.0 7.0 0.00 0.00 0.00 81 1016.4
20260504224031 56 27 2.0 7.0 0.00 0.00 0.00 81 1016.3
20260504223017 56 32 1.0 7.0 0.00 0.00 0.00 82 1016.4
20260504222018 56 21 2.0 12.0 0.00 0.00 0.00 82 1016.5
20260504221019 57 20 2.0 7.0 0.00 0.00 0.00 81 1016.5
20260504220022 57 31 2.0 7.0 0.00 0.00 0.00 81 1016.6
20260504215024 57 26 1.0 5.0 0.00 0.00 0.00 81 1016.5
20260504214026 57 29 0.0 5.0 0.00 0.00 0.00 81 1016.6
20260504213027 57 26 1.0 7.0 0.00 0.00 0.00 81 1016.5
20260504212026 58 22 1.0 5.0 0.00 0.00 0.00 81 1016.5
20260504211030 58 22 1.0 5.0 0.00 0.00 0.00 81 1016.4
20260504210031 58 26 1.0 5.0 0.00 0.00 0.00 80 1016.5
20260504205018 58 24 1.0 5.0 0.00 0.00 0.00 80 1016.4
20260504204022 58 22 0.0 5.0 0.00 0.00 0.00 80 1016.4
20260504203026 58 23 0.0 2.0 0.00 0.00 0.00 80 1016.4
20260504202029 57 25 1.0 5.0 0.00 0.00 0.00 81 1016.4
20260504201030 57 17 0.0 0.0 0.00 0.00 0.00 81 1016.4
20260504200038 58 31 0.0 2.0 0.00 0.00 0.00 81 1016.3